Skip Page Navigation
NASA JPL Caltech
NASA Logo - Jet Propulsion Laboratory + View the NASA Portal
+ Center for Near-Earth Object Studies
JPL Home Earth Solar System Stars & Galaxies Technology
JPL Solar System Dynamics
BODIES ORBITS EPHEMERIDES TOOLS PHYSICAL DATA DISCOVERY FAQ SITE MAP
IMPORTANT: The SSD Announcement email list is now available. Major changes are coming in the near future, including possible hostname and/or URL changes. To be notified of such changes, subscribe to this email list.

Please visit this page for more details.


JPL Small-Body Database Browser
Search: [ help ]  
32411 (2000 RY24)
Classification: Main-belt Asteroid          SPK-ID: 2032411
Ephemeris | Orbit Diagram | Orbital Elements | Mission Design | Physical Parameters | Discovery Circumstances | Close-Approach Data ]

[ show orbit diagram ]
Orbital Elements at Epoch 2458600.5 (2019-Apr-27.0) TDB
Reference: JPL 21 (heliocentric ecliptic J2000)
 Element Value Uncertainty (1-sigma)   Units 
e .04357880410244457 4.3999e-08  
a 3.119882780227476 2.4321e-08 au
q 2.983922019725353 1.3523e-07 au
i 15.66963573241084 4.9319e-06 deg
node 216.8343742945667 1.6223e-05 deg
peri 335.4762916386091 5.6515e-05 deg
M 291.0184806131243 5.5676e-05 deg
tp 2458986.187974115512
(2020-May-16.68797412)
0.00031221 TDB
period 2012.824187053226
5.51
2.3537e-05
6.444e-08
d
yr
n .1788531767034456 2.0914e-09 deg/d
Q 3.255843540729599 2.5381e-08 au
  Orbit Determination Parameters
   # obs. used (total)      845  
   data-arc span      9432 days (25.82 yr)  
   first obs. used      1993-05-21  
   last obs. used      2019-03-18  
   planetary ephem.      DE431  
   SB-pert. ephem.      SB431-N16  
   condition code      0  
   norm. resid. RMS      .56269  
   source      ORB  
   producer      Otto Matic  
   solution date      2019-Jul-13 01:31:45  

Additional Information
 Earth MOID = 1.98567 au 
 Jupiter MOID = 1.73006 au 
 T_jup = 3.157 
[ show covariance matrix ]

Ephemeris | Orbit Diagram | Orbital Elements | Mission Design | Physical Parameters | Discovery Circumstances | Close-Approach Data ]

Physical Parameter Table
Parameter Symbol Value Units Sigma Reference Notes
absolute magnitude H 14.1   n/a MPO435988  

32411 (2000 RY24)          Discovered 2000-Sep-01 by LINEAR at Socorro
Reference: 20011130/Numbers.arcLast Updated: 2004-04-19

[ show close-approach data ]
Alternate Designations
 2000 RY24 = 1998 FR100 
Ephemeris | Orbit Diagram | Orbital Elements | Mission Design | Physical Parameters | Discovery Circumstances | Close-Approach Data ]
ABOUT SSD CREDITS/AWARDS PRIVACY/COPYRIGHT GLOSSARY LINKS
FirstGov
(server date/time)  
NASA Home Page
Site Manager:   Ryan S. Park
Webmaster  Alan B. Chamberlin